Stündliche Wetter Cegielnia

Heute, 27 Januar, Mittwoch

Zeit Temperatur Niederschläge Wind Luftdruck Luftfeuchtigkeit
00:00 -3°C° 0 mm 7 m/S 749 mmHg 80%
01:00 -3°C° 0 mm 7 m/S 749 mmHg 79%
02:00 -3°C° 0 mm 7 m/S 749 mmHg 79%
03:00 -3°C° 0 mm 7 m/S 749 mmHg 79%
04:00 -4°C° 0 mm 8 m/S 750 mmHg 79%
05:00 -3°C° 0 mm 7 m/S 750 mmHg 79%
06:00 -3°C° 0 mm 7 m/S 750 mmHg 80%
07:00 -3°C° 0 mm 6 m/S 750 mmHg 81%
08:00 -3°C° 0 mm 6 m/S 750 mmHg 78%
09:00 -2°C° 0 mm 6 m/S 750 mmHg 76%
10:00 -2°C° 0 mm 6 m/S 750 mmHg 74%
11:00 -2°C° 0 mm 6 m/S 751 mmHg 75%
12:00 0°C° 0 mm 5 m/S 751 mmHg 75%
13:00 0°C° 0 mm 5 m/S 751 mmHg 76%
14:00 0°C° 0 mm 5 m/S 751 mmHg 79%
15:00 0°C° 0 mm 5 m/S 751 mmHg 81%
16:00 -1°C° 0 mm 4 m/S 751 mmHg 84%
17:00 -1°C° 0 mm 4 m/S 751 mmHg 86%
18:00 -2°C° 0 mm 4 m/S 751 mmHg 87%
19:00 -2°C° 0 mm 4 m/S 751 mmHg 89%
20:00 -4°C° 0 mm 5 m/S 751 mmHg 90%
21:00 -5°C° 0 mm 5 m/S 750 mmHg 91%
22:00 -5°C° 0 mm 5 m/S 750 mmHg 92%
23:00 -5°C° 0 mm 5 m/S 750 mmHg 92%

Morgen, 28 Januar, Donnerstag

Zeit Temperatur Niederschläge Wind Luftdruck Luftfeuchtigkeit
00:00 -5°C° 0 mm 5 m/S 750 mmHg 91%
01:00 -5°C° 0 mm 5 m/S 749 mmHg 91%
02:00 -4°C° 0 mm 5 m/S 749 mmHg 89%
03:00 -4°C° 0 mm 6 m/S 748 mmHg 87%
04:00 -3°C° 0 mm 6 m/S 747 mmHg 86%
05:00 -3°C° 0.2 mm 6 m/S 746 mmHg 88%
06:00 -3°C° 0.2 mm 7 m/S 746 mmHg 91%
07:00 -4°C° 0.2 mm 7 m/S 745 mmHg 93%
08:00 -3°C° 0.4 mm 6 m/S 745 mmHg 93%
09:00 -3°C° 0.4 mm 6 m/S 744 mmHg 93%
10:00 -2°C° 0.4 mm 5 m/S 744 mmHg 93%
11:00 -3°C° 0.3 mm 6 m/S 744 mmHg 92%
12:00 -2°C° 0.3 mm 7 m/S 744 mmHg 91%
13:00 -2°C° 0.3 mm 7 m/S 743 mmHg 90%
14:00 -2°C° 0.2 mm 8 m/S 743 mmHg 88%
15:00 -4°C° 0.2 mm 8 m/S 743 mmHg 85%
16:00 -4°C° 0.2 mm 8 m/S 743 mmHg 82%
17:00 -4°C° 0.1 mm 8 m/S 743 mmHg 82%
18:00 -5°C° 0.1 mm 8 m/S 743 mmHg 81%
19:00 -4°C° 0.1 mm 7 m/S 743 mmHg 81%
20:00 -4°C° 0.1 mm 7 m/S 743 mmHg 81%
21:00 -5°C° 0.1 mm 8 m/S 743 mmHg 82%
22:00 -5°C° 0.1 mm 8 m/S 743 mmHg 82%
23:00 -5°C° 0 mm 8 m/S 743 mmHg 81%

übermorgen, 29 Januar, Freitag

Zeit Temperatur Niederschläge Wind Luftdruck Luftfeuchtigkeit
00:00 -5°C° 0 mm 8 m/S 743 mmHg 80%
01:00 -5°C° 0 mm 9 m/S 743 mmHg 79%
02:00 -5°C° 0 mm 9 m/S 743 mmHg 79%
03:00 -5°C° 0 mm 9 m/S 743 mmHg 79%
04:00 -6°C° 0 mm 9 m/S 742 mmHg 79%
05:00 -5°C° 0 mm 8 m/S 743 mmHg 80%
06:00 -5°C° 0 mm 8 m/S 743 mmHg 81%
07:00 -5°C° 0 mm 8 m/S 743 mmHg 81%
08:00 -4°C° 0 mm 7 m/S 742 mmHg 83%
09:00 -4°C° 0 mm 6 m/S 742 mmHg 84%
10:00 -4°C° 0 mm 6 m/S 742 mmHg 85%
11:00 -4°C° 0.1 mm 5 m/S 742 mmHg 86%
12:00 -4°C° 0.1 mm 5 m/S 742 mmHg 88%
13:00 -2°C° 0.1 mm 5 m/S 743 mmHg 89%
14:00 -2°C° 0.1 mm 4 m/S 742 mmHg 89%
15:00 -2°C° 0.1 mm 4 m/S 742 mmHg 90%
16:00 -3°C° 0.1 mm 4 m/S 742 mmHg 90%
17:00 -2°C° 0 mm 3 m/S 742 mmHg 89%
18:00 -2°C° 0 mm 3 m/S 743 mmHg 88%
19:00 -4°C° 0 mm 3 m/S 743 mmHg 87%
20:00 -4°C° 0.1 mm 3 m/S 743 mmHg 88%
21:00 -3°C° 0.1 mm 4 m/S 743 mmHg 88%
22:00 -3°C° 0.1 mm 4 m/S 743 mmHg 89%
23:00 -3°C° 0.1 mm 4 m/S 743 mmHg 88%

30 Januar, Samstag

Zeit Temperatur Niederschläge Wind Luftdruck Luftfeuchtigkeit
00:00 -3°C° 0.1 mm 4 m/S 743 mmHg 87%
01:00 -3°C° 0.1 mm 4 m/S 743 mmHg 86%
02:00 -3°C° 0 mm 4 m/S 743 mmHg 85%
03:00 -3°C° 0 mm 4 m/S 743 mmHg 84%
04:00 -4°C° 0 mm 4 m/S 743 mmHg 83%
05:00 -4°C° 0 mm 4 m/S 743 mmHg 81%
06:00 -4°C° 0 mm 4 m/S 744 mmHg 79%
07:00 -5°C° 0 mm 4 m/S 744 mmHg 77%
08:00 -4°C° 0 mm 4 m/S 744 mmHg 74%
09:00 -4°C° 0 mm 4 m/S 744 mmHg 71%
10:00 -3°C° 0 mm 4 m/S 744 mmHg 68%
11:00 -4°C° 0 mm 5 m/S 744 mmHg 67%
12:00 -4°C° 0 mm 5 m/S 744 mmHg 65%
13:00 -4°C° 0 mm 5 m/S 744 mmHg 64%
14:00 -4°C° 0 mm 5 m/S 744 mmHg 66%
15:00 -5°C° 0 mm 5 m/S 744 mmHg 68%
16:00 -5°C° 0 mm 5 m/S 743 mmHg 71%
17:00 -5°C° 0 mm 5 m/S 744 mmHg 75%
18:00 -5°C° 0 mm 5 m/S 744 mmHg 79%
19:00 -5°C° 0 mm 5 m/S 744 mmHg 83%
20:00 -5°C° 0 mm 5 m/S 744 mmHg 81%
21:00 -5°C° 0 mm 5 m/S 744 mmHg 78%
22:00 -5°C° 0 mm 5 m/S 744 mmHg 76%
23:00 -5°C° 0 mm 5 m/S 744 mmHg 75%

31 Januar, Sonntag

Zeit Temperatur Niederschläge Wind Luftdruck Luftfeuchtigkeit
00:00 -5°C° 0 mm 6 m/S 744 mmHg 74%
01:00 -5°C° 0 mm 6 m/S 745 mmHg 73%
02:00 -5°C° 0 mm 6 m/S 745 mmHg 73%
03:00 -5°C° 0 mm 6 m/S 745 mmHg 73%
04:00 -6°C° 0 mm 7 m/S 745 mmHg 72%
05:00 -6°C° 0 mm 7 m/S 745 mmHg 71%
06:00 -6°C° 0 mm 7 m/S 745 mmHg 70%
07:00 -6°C° 0 mm 7 m/S 745 mmHg 70%
08:00 -4°C° 0 mm 7 m/S 745 mmHg 70%
09:00 -4°C° 0 mm 7 m/S 746 mmHg 70%
10:00 -3°C° 0 mm 7 m/S 746 mmHg 70%
11:00 -3°C° 0 mm 6 m/S 746 mmHg 70%
12:00 -3°C° 0 mm 6 m/S 746 mmHg 70%
13:00 -3°C° 0 mm 6 m/S 746 mmHg 70%
14:00 -3°C° 0 mm 6 m/S 746 mmHg 72%
15:00 -4°C° 0 mm 6 m/S 746 mmHg 74%
16:00 -4°C° 0 mm 6 m/S 746 mmHg 76%
17:00 -4°C° 0 mm 5 m/S 747 mmHg 78%
18:00 -5°C° 0 mm 5 m/S 747 mmHg 79%
19:00 -5°C° 0 mm 5 m/S 747 mmHg 80%
20:00 -5°C° 0 mm 5 m/S 747 mmHg 81%
21:00 -5°C° 0 mm 5 m/S 747 mmHg 82%
22:00 -5°C° 0 mm 5 m/S 747 mmHg 83%
23:00 -5°C° 0 mm 5 m/S 747 mmHg 82%

1 Februar, Montag

Zeit Temperatur Niederschläge Wind Luftdruck Luftfeuchtigkeit
00:00 -5°C° 0 mm 5 m/S 747 mmHg 82%
01:00 -5°C° 0 mm 5 m/S 747 mmHg 81%
02:00 -5°C° 0 mm 5 m/S 746 mmHg 82%
03:00 -5°C° 0 mm 5 m/S 746 mmHg 83%
04:00 -5°C° 0 mm 5 m/S 746 mmHg 83%
05:00 -5°C° 0 mm 5 m/S 746 mmHg 84%
06:00 -5°C° 0 mm 5 m/S 747 mmHg 85%
07:00 -6°C° 0 mm 5 m/S 747 mmHg 86%
08:00 -5°C° 0 mm 5 m/S 747 mmHg 85%
09:00 -5°C° 0 mm 6 m/S 747 mmHg 85%
10:00 -4°C° 0 mm 6 m/S 747 mmHg 85%
11:00 -4°C° 0 mm 6 m/S 747 mmHg 81%
12:00 -4°C° 0 mm 6 m/S 748 mmHg 77%
13:00 -2°C° 0 mm 5 m/S 748 mmHg 73%
14:00 -4°C° 0 mm 5 m/S 748 mmHg 75%
15:00 -3°C° 0 mm 4 m/S 748 mmHg 77%
16:00 -4°C° 0 mm 3 m/S 748 mmHg 80%
17:00 -4°C° 0 mm 3 m/S 748 mmHg 81%
18:00 -5°C° 0 mm 3 m/S 748 mmHg 83%
19:00 -5°C° 0 mm 3 m/S 748 mmHg 85%
20:00 -5°C° 0 mm 3 m/S 748 mmHg 85%
21:00 -6°C° 0 mm 3 m/S 749 mmHg 86%
22:00 -6°C° 0 mm 3 m/S 749 mmHg 86%
23:00 -6°C° 0 mm 3 m/S 749 mmHg 85%
Mehr zeigen

Wir brauchen deine Erlaubnis

Meteoprog und unser Service Anbieter werden persönliche Daten aufbewahren, so wie Cookies, Geräte Bezeichnung oder ähnliche Technologien von deinem Gerät und Prozess, so wie Persönliche Daten Inhalte und Werbungen, genauso wie social Media und den Verkehr zu analysieren.

  • Aufbewahrung und/oder Zugang zu deiner Geräte Informationen.

    Cookies, Geräte Bezeichnung oder andere Informationen, können aufbewahrt oder Zugang zu deinem Gerät erhalten, für den Grund, der oben angegeben wird.

  • Personalisierte Werbung und Inhalte, Messungen, Einblick in das Publikum und Produkt Entwicklung.

    Werbungen und Inhalte können personalisiert werden, basierend auf ein Profil. Mehr Daten können besser personalisierte Werbungen und Inhalte hinzufügen. Werbung und Inhalte können gezeigt und gemessen werden. Einblicke über das Publikum, welche die Werbung gesehen haben und den Inhalt, können abgeleitet werden. So wie Daten können genutzt werden, um es zu verbessern oder die Benutzer Erfahrung zu verbessern das System und die Software.

Wenn du “Ich stimme zu” klickst, erlaubst du uns, die Cookies zu benutzen die Geräte Bezeichnung, den Web oder ähnliche Technologien zu benutzen. Deine Settings, können in deinem Gerät bei deinem Browser geändert werden.

Für den bestimmten Zweck, berechtigten Interessen beruhen darauf, mehr als auf den Inhalt. Du kannst mehr darüber in unseren Privaten und Cookie Politik lesen.